Location: Averill Park
(42.6340°N, 73.5537°W)
Time: 14:28:39
(UTC+00:00)

YUBILEINY - Visible Passes

Search period start: 14 February 2026 00:00
Search period end: 24 February 2026 00:00
Orbit: 1478 x 1508 km, 82.5° (Epoch: 13 February)

Date Brightness Start Highest point End Pass type
(mag) Time Alt. Az. Time Alt. Az. Time Alt. Az.
14 Feb ? 01:13:50 10° SSW 01:22:20 50° WNW 01:30:54 10° N visible
14 Feb ? 09:27:24 10° NNE 09:33:18 19° ENE 09:39:07 10° ESE visible
14 Feb ? 11:22:38 10° N 11:31:30 86° E 11:40:14 10° S visible
15 Feb ? 00:23:37 10° S 00:32:28 85° W 00:41:23 10° N visible
15 Feb ? 02:24:49 10° WSW 02:30:41 19° WNW 02:36:36 10° NNW visible
15 Feb ? 10:33:08 10° N 10:41:38 50° ENE 10:50:02 10° SSE visible
15 Feb ? 23:34:26 10° SSE 23:42:58 56° E 23:51:31 10° NNE visible
16 Feb ? 01:32:21 10° SW 01:40:09 34° WNW 01:48:00 10° N visible
16 Feb ? 09:44:02 10° N 09:51:24 29° ENE 09:58:41 10° ESE visible
16 Feb ? 22:46:23 10° SE 22:53:47 32° E 23:01:12 10° NNE visible
17 Feb ? 00:41:21 10° SSW 00:50:02 59° WNW 00:58:45 10° N visible
17 Feb ? 02:45:57 10° WNW 02:49:03 12° NW 02:52:11 10° NNW visible
17 Feb ? 08:55:46 10° NNE 09:00:43 16° ENE 09:05:37 10° E visible
17 Feb ? 10:50:27 10° N 10:59:16 74° E 11:07:58 10° SSE visible
17 Feb ? 23:51:27 10° S 00:00:16 82° E 00:09:09 10° N visible
18 Feb ? 01:51:34 10° WSW 01:58:10 23° WNW 02:04:49 10° NNW visible
18 Feb ? 10:01:03 10° N 10:09:18 43° ENE 10:17:27 10° SE visible
18 Feb ? 23:02:35 10° SSE 23:10:52 48° E 23:19:10 10° NNE visible
19 Feb ? 00:59:37 10° SW 01:07:46 40° WNW 01:15:58 10° N visible
19 Feb ? 09:12:08 10° NNE 09:18:57 24° ENE 09:25:40 10° ESE visible
19 Feb ? 11:07:56 10° N 11:16:42 77° W 11:25:23 10° S visible
20 Feb ? 00:08:57 10° SSW 00:17:46 70° W 00:26:36 10° N visible
20 Feb ? 02:11:51 10° W 02:16:25 15° WNW 02:21:02 10° NNW visible
20 Feb ? 08:24:28 10° NNE 08:28:06 13° NE 08:31:43 10° E visible
20 Feb ? 10:18:17 10° N 10:27:00 63° ENE 10:35:36 10° SSE visible
20 Feb ? 23:19:22 10° S 23:28:07 71° E 23:36:53 10° NNE visible
21 Feb ? 01:18:30 10° WSW 01:25:41 27° WNW 01:32:56 10° N visible
21 Feb ? 09:29:00 10° N 09:36:55 36° ENE 09:44:44 10° SE visible
22 Feb ? 00:26:59 10° SSW 00:35:25 47° WNW 00:43:53 10° N visible
22 Feb ? 08:40:18 10° NNE 08:46:25 20° ENE 08:52:29 10° ESE visible
22 Feb ? 10:35:41 10° N 10:44:31 90° WSW 10:53:14 10° S visible
22 Feb ? 23:36:40 10° S 23:45:32 81° W 23:54:25 10° N visible
23 Feb ? 01:38:15 10° W 01:43:51 18° WNW 01:49:28 10° NNW visible
23 Feb ? 07:54:17 10° NE 07:55:26 10° NE 07:56:34 10° ENE visible
23 Feb ? 09:46:09 10° N 09:54:42 53° ENE 10:03:08 10° SSE visible
